Regional Weather Roundup
Issued by NWS

Home | Current Version | Previous Version | Text Only | Print | Product List | Glossary On
Versions: 1 2 3 4 5 6 7 8 9 10 11 12 13 14 15 16 17 18 19 20 21 22 23 24 25 26 27 28 29 30 31 32 33 34 35 36 37 38 39 40 41 42 43 44 45 46 47 48
000
ASUS42 KFFC 302203
RWRGA
WEATHER ROUNDUP FOR GEORGIA
NATIONAL WEATHER SERVICE PEACHTREE CITY GA
600 PM EDT WED JUL 30 2014

NOTE: "FAIR" INDICATES FEW OR NO CLOUDS BELOW 12,000 FEET WITH NO
SIGNIFICANT WEATHER AND/OR OBSTRUCTIONS TO VISIBILITY.

* = USE WITH CAUTION. THE STATIONS MARKED WITH AN ASTERISK MAY NOT
REPORT WEATHER SUCH AS PRECIPITATION, FOG, OR THUNDER AND ARE NOT
QUALITY CONTROLLED BY NWS.

THE REMARK "TC" DENOTES TEMPERATURE READING IN DEGREES CELSIUS.

GAZ001>058-302300-
NORTH GEORGIA

CITY           SKY/WX    TMP DP  RH WIND       PRES   REMARKS
ATLANTA        MOSUNNY   84  54  35 N7        30.03S
ATHENS         MOSUNNY   84  58  40 NE6       30.02S
CHAMBLEE       MOSUNNY   83  56  39 VRB3      30.04R
PEACHTREE CITY PTSUNNY   84  55  36 NE5       30.02S
ROME           SUNNY     84  54  35 N9        30.03F
WEST ATLANTA   SUNNY     84  56  38 N6        30.03S
GAINESVILLE    SUNNY     82  52  35 E3        30.07S
CARTERSVILLE   SUNNY     84  54  35 VRB5      30.04S


CITY           SKY/WX    TMP DP  RH WIND       PRES   REMARKS
DALTON*        SUNNY     79  57  47 CALM      30.05F
LAWRENCEVILLE* MOSUNNY   82  54  36 NE5       30.04S
MARIETTA       MOSUNNY   81  56  43 N7        30.04S
KENNESAW*      MOSUNNY   82  52  34 CALM      30.06S
$$

GAZ059>098-102>109-302300-
CENTRAL GEORGIA

CITY           SKY/WX    TMP DP  RH WIND       PRES   REMARKS
AUGUSTA-BUSH   MOSUNNY   86  66  51 E10       29.96S
AUGUSTA-DANIEL PTSUNNY   87  64  46 SE9       29.98S
COLUMBUS       SUNNY     83  56  39 CALM      29.99F
MACON          SUNNY     86  56  35 N7        29.98F
ROBINS AFB     SUNNY     86  60  41 NE3       29.98F


CITY           SKY/WX    TMP DP  RH WIND       PRES   REMARKS
LAGRANGE*      SUNNY     86  62  44 N5        30.02S
SYLVANIA*      PTSUNNY   83  74  75 E10       29.99S HX  90
MILLEDGEVILLE* SUNNY     81  54  39 N3        29.98F
$$

GAZ099>101-110>166-302300-
SOUTH GEORGIA

CITY           SKY/WX    TMP DP  RH WIND       PRES   REMARKS
SAVANNAH       LGT RAIN  84  72  67 E6        29.97S
VALDOSTA       CLOUDY    92  57  30 VRB3      29.96R HX  90
ALMA           SUNNY     89  56  32 CALM      29.94S
ST SIMONS      MOSUNNY   84  72  67 E7        29.94S
FT STEWART     PTSUNNY   83  72  71 NE7       29.94S
ALBANY         SUNNY     87  56  34 W8        29.99S
HUNTER AFB     MOSUNNY   85  72  64 E10       29.94S HX  90
MOODY AFB      MOSUNNY   89  70  53 W2        29.95S HX  94
BRUNSWICK      MOSUNNY   86  72  62 NE9       29.95S HX  92


CITY           SKY/WX    TMP DP  RH WIND       PRES   REMARKS
BAINBRIDGE*    SUNNY     90  61  37 NW7       29.97S
MOULTRIE*      MOSUNNY   88  55  33 N8        29.97S
VIDALIA*         N/A     90  61  37 SE3       29.95F
WAYCROSS*      MOSUNNY   92  61  35 CALM      29.93S HX  92
DOUGLAS*       SUNNY     91  54  27 CALM      29.96S
$$



USA.gov is the U.S. government's official web portal to all federal, state and local government web resources and services.